Simultaneous Nadir Overpasses (SNOs) Predictions

Prediction of SNOs between GOES-15 and LANDSAT-8 Satellite Orbit:

Table of predicted SNOs for the next 14.0 days since TLE Epoch: 5/27/2023
Index Date Time (GOES-15) GOES-15 Lat,Lon LANDSAT-8 Lat,Lon Distance(km) Time Diff (sec)
1 05/28/2023 08:24:10 0.24,-153.71 0.28,-153.51 22.08 80
2 05/30/2023 08:12:02 0.25,-154.57 1.10,-150.59 452.15 80
3 05/30/2023 20:35:58 -0.23,-154.79 -0.03,-155.75 109.41 80
4 06/01/2023 20:21:09 -0.24,-155.64 -0.82,-152.83 319.67 80
5 06/02/2023 08:45:14 0.22,-155.86 -0.23,-158.03 246.00 80
6 06/04/2023 08:30:25 0.23,-156.70 0.56,-155.10 181.51 80
7 06/04/2023 20:54:20 -0.21,-156.91 0.50,-160.26 380.95 80
8 06/06/2023 20:39:31 -0.23,-157.74 -0.31,-157.34 45.24 80
9 06/08/2023 20:27:23 -0.24,-158.56 -1.13,-154.41 470.97 80
10 06/09/2023 08:51:26 0.22,-158.77 0.04,-159.61 95.06 80
